840  
ASUS43 KIWX 241100  
RWRIWX  
 
KIWX WEATHER ROUNDUP  
NATIONAL WEATHER SERVICE NORTHERN INDIANA  
600 AM EST FRI NOV 24 2017  
 
NOTE: "FAIR" INDICATES FEW OR NO CLOUDS BELOW 12,000 FEET WITH NO  
SIGNIFICANT WEATHER AND/OR S TO VISIBILITY
.  
 
* THESE STATIONS ARE NOT UNDER NWS QUALITY CONTROL. THEY ALSO MAY NOT  
REPORT WEATHER SUCH AS PRECIPITATION OR FOG.
 
 
INZ001>027-241200-  
NORTHERN INDIANA  
 
CITY SKY/WX TMP DP RH WIND PRES REMARKS
 
GARY* CLEAR 36 27 69 SW6 29.84F  
MICHIGAN CITY* PTCLDY 34 27 75 SW7 29.84S WCI 28  
SOUTH BEND CLEAR 31 25 78 S9 29.85F WCI 23  
GOSHEN CLEAR 33 23 66 S7 29.86F WCI 27  
MONTICELLO* CLEAR 32 24 71 S8 29.88S WCI 25  
FORT WAYNE CLEAR 31 25 78 SW7 29.90S WCI 24  
PERU/GRISSOM CLEAR 31 25 79 S8 29.88S WCI 24  
 

 
INZ028>050-241200-  
CENTRAL INDIANA  
 
CITY SKY/WX TMP DP RH WIND PRES REMARKS
 
LAFAYETTE CLEAR 32 25 75 CALM 29.89F  
KOKOMO* CLEAR 31 25 78 S8 29.90S WCI 23  
MUNCIE* CLEAR 35 23 61 S7 29.91F WCI 29  
INDIANAPOLIS CLOUDY 31 24 75 S6 29.93S WCI 25  
 

 
MIZ043>046-050>051-056>058-064>065-071>073-077>080-241200-  
SOUTHWEST LOWER MICHIGAN  
 
CITY SKY/WX TMP DP RH WIND PRES REMARKS
 
BATTLE CREEK CLEAR 32 24 72 S12 29.83F WCI 23  
BENTON HARBOR CLEAR 34 25 69 S7 29.82F WCI 28  
COLDWATER* CLEAR 32 23 68 SW7 29.85S WCI 26  
HILLSDALE* CLEAR 32 23 69 SW6 29.85R WCI 26  
HOLLAND CLEAR 33 26 75 S10 29.80F WCI 25  
GRAND RAPIDS CLEAR 34 27 75 SW10 29.79F WCI 26  
KALAMAZOO CLEAR 32 24 72 S10 29.83F WCI 24  
STURGIS* CLEAR 30 25 79 S7 29.85S WCI 23  
THREE RIVERS* FAIR 31 25 79 S6 29.85F WCI 25  
 

 
OHZ001>008-015>018-024>025-241200-  
NORTHWEST OHIO  
 
CITY SKY/WX TMP DP RH WIND PRES REMARKS
 
DEFIANCE CLEAR 31 23 72 S8 29.89F WCI 23  
FINDLAY CLEAR 32 24 72 S12 29.91F WCI 23  
TOLEDO EXPRESS CLEAR 32 26 78 S6 29.89F WCI 26  
TOLEDO METCALF CLEAR 29 24 82 S7 29.91F WCI 22  
LIMA CLEAR 32 24 72 S10 29.91F WCI 24  
 

 
AND FOR LAKE MICHIGAN COASTAL AND OPEN LAKE BUOY OBSERVATIONS  
 
STATION/POSITION TEMP WIND PRES VSBY WAVE
 
AIR SEA DIR/SP/G HT/PER  
(F) (DEG/KT/KT) (MB) (MI) (FT/S)  
CALUMET HARBOR 35 200/ 6/ 8 1009.5  
MICHIGAN CITY 35 170/ 10/ 16 N/A  
BURNS HARBOR 36 190/ 11/ 14 1010.8S  
SAINT JOSEPH 35 160/ 5/ 11 1010.2  
SOUTH LAKE BUOY 45 47 230/ 17/ 21 1009.0 3/ 5  
 

 

 
 
 
CLICK HERE TO GO TO PREVIOUS BULLETINS.

The Nexlab IN Page
The Nexlab OH Page
The Nexlab MI Page Main Text Page